QPF
0.00 0.00 0.00 0.00 0.00 0.00 0.00 0.00 0.00 0.00 0.00 0.00 0.00 0.00 0.01 0.01 0.01 0.01 0.01 0.01 0.01 0.01 0.01 0.01 0.01 0.02 0.02 0.02 0.01 0.02 0.02 0.02 0.02 0.03 0.03 0.03 0.03 0.03 0.03 0.03 0.04 0.03 0.03 0.02
0.00 0.00 0.00 0.00 0.00 0.00 0.00 0.00 0.00 0.00 0.00 0.00 0.00 0.00 0.01 0.01 0.01 0.00 0.00 0.00 0.01 0.01 0.01 0.01 0.01 0.02 0.02 0.03 0.02 0.02 0.02 0.03 0.04 0.06 0.06 0.06 0.06 0.06 0.06 0.05 0.04 0.03 0.03 0.02
0.00 0.00 0.00 0.00 0.00 0.00 0.00 0.00 0.00 0.00 0.00 0.00 0.00 0.00 0.01 0.01 0.00 0.01 0.01 0.01 0.01 0.00 0.00 0.01 0.01 0.02 0.02 0.03 0.03 0.03 0.04 0.05 0.07 0.10 0.11 0.08 0.06 0.07 0.06 0.05 0.04 0.03 0.03 0.03
0.00 0.00 0.00 0.00 0.00 0.00 0.00 0.00 0.00 0.00 0.00 0.00 0.00 0.00 0.00 0.01 0.01 0.01 0.02 0.01 0.00 0.01 0.01 0.01 0.01 0.02 0.03 0.03 0.05 0.05 0.05 0.07 0.08 0.10 0.07 0.05 0.04 0.04 0.04 0.03 0.03 0.04 0.04 0.03
0.00 0.00 0.00 0.00 0.00 0.00 0.00 0.00 0.00 0.00 0.00 0.00 0.00 0.00 0.00 0.00 0.00 0.01 0.01 0.01 0.01 0.01 0.01 0.01 0.01 0.02 0.03 0.05 0.07 0.08 0.09 0.08 0.07 0.07 0.06 0.05 0.04 0.04 0.05 0.04 0.03 0.03 0.03 0.03
0.00 0.00 0.00 0.00 0.00 0.00 0.00 0.00 0.00 0.00 0.00 0.01 0.01 0.00 0.00 0.00 0.00 0.00 0.00 0.01 0.01 0.01 0.00 0.01 0.02 0.03 0.05 0.06 0.08 0.10 0.09 0.06 0.05 0.07 0.08 0.08 0.05 0.04 0.03 0.03 0.02 0.02 0.02 0.03
0.00 0.00 0.00 0.00 0.00 0.00 0.00 0.00 0.00 0.00 0.00 0.01 0.01 0.00 0.00 0.00 0.00 0.00 0.01 0.01 0.01 0.01 0.01 0.01 0.02 0.01 0.03 0.06 0.07 0.08 0.07 0.06 0.06 0.07 0.09 0.10 0.10 0.08 0.06 0.05 0.04 0.03 0.03 0.03
0.00 0.00 0.00 0.00 0.00 0.00 0.00 0.00 0.00 0.00 0.00 0.00 0.00 0.00 0.00 0.00 0.00 0.00 0.01 0.01 0.01 0.01 0.02 0.02 0.02 0.01 0.03 0.04 0.05 0.06 0.05 0.05 0.05 0.06 0.08 0.09 0.11 0.12 0.11 0.09 0.08 0.05 0.04 0.04
0.00 0.00 0.00 0.00 0.00 0.00 0.00 0.00 0.00 0.00 0.00 0.00 0.00 0.00 0.00 0.00 0.00 0.00 0.01 0.01 0.01 0.02 0.02 0.02 0.01 0.01 0.02 0.02 0.03 0.03 0.03 0.03 0.04 0.06 0.08 0.09 0.10 0.11 0.11 0.12 0.11 0.08 0.07 0.08
0.00 0.00 0.00 0.00 0.00 0.00 0.00 0.00 0.00 0.00 0.00 0.00 0.00 0.00 0.00 0.00 0.00 0.00 0.01 0.01 0.02 0.03 0.03 0.03 0.02 0.02 0.01 0.01 0.02 0.02 0.03 0.03 0.05 0.07 0.08 0.08 0.08 0.08 0.08 0.13 0.14 0.12 0.10 0.11
0.00 0.00 0.00 0.00 0.00 0.00 0.00 0.00 0.00 0.00 0.00 0.00 0.00 0.00 0.00 0.00 0.01 0.01 0.01 0.01 0.03 0.03 0.02 0.02 0.03 0.02 0.02 0.02 0.02 0.02 0.02 0.03 0.05 0.08 0.07 0.06 0.07 0.08 0.08 0.11 0.16 0.17 0.14 0.13
0.00 0.00 0.00 0.00 0.00 0.00 0.00 0.00 0.00 0.00 0.00 0.00 0.00 0.00 0.00 0.01 0.01 0.00 0.01 0.01 0.01 0.02 0.02 0.02 0.03 0.02 0.02 0.03 0.02 0.02 0.02 0.03 0.05 0.05 0.04 0.04 0.05 0.06 0.07 0.10 0.11 0.13 0.15 0.13
0.00 0.00 0.00 0.00 0.00 0.00 0.00 0.00 0.00 0.00 0.00 0.00 0.00 0.00 0.00 0.00 0.00 0.01 0.00 0.00 0.01 0.01 0.02 0.02 0.03 0.02 0.03 0.02 0.02 0.02 0.03 0.03 0.04 0.04 0.04 0.03 0.03 0.05 0.07 0.08 0.09 0.09 0.11 0.09
0.00 0.00 0.00 0.00 0.00 0.00 0.00 0.00 0.00 0.00 0.00 0.00 0.00 0.00 0.00 0.00 0.00 0.00 0.01 0.01 0.01 0.03 0.02 0.02 0.02 0.02 0.02 0.03 0.03 0.02 0.02 0.02 0.03 0.03 0.04 0.03 0.04 0.05 0.07 0.08 0.09 0.09 0.09 0.08
0.00 0.00 0.00 0.00 0.00 0.00 0.00 0.00 0.00 0.00 0.00 0.00 0.00 0.00 0.00 0.00 0.00 0.00 0.01 0.01 0.02 0.03 0.02 0.02 0.02 0.01 0.02 0.01 0.02 0.02 0.01 0.02 0.02 0.02 0.02 0.03 0.05 0.06 0.07 0.07 0.08 0.09 0.09 0.08
0.00 0.00 0.00 0.00 0.01 0.01 0.00 0.00 0.00 0.00 0.00 0.00 0.00 0.00 0.00 0.00 0.00 0.00 0.01 0.01 0.01 0.01 0.01 0.01 0.01 0.01 0.01 0.01 0.02 0.02 0.01 0.01 0.02 0.02 0.02 0.03 0.04 0.05 0.06 0.08 0.11 0.14 0.14 0.12
0.00 0.00 0.01 0.00 0.00 0.00 0.01 0.01 0.00 0.00 0.00 0.00 0.00 0.00 0.00 0.00 0.01 0.01 0.01 0.01 0.01 0.01 0.01 0.01 0.01 0.01 0.01 0.01 0.01 0.02 0.01 0.02 0.02 0.02 0.02 0.03 0.03 0.04 0.07 0.09 0.09 0.11 0.11 0.13
0.00 0.01 0.00 0.00 0.00 0.00 0.01 0.01 0.01 0.00 0.00 0.01 0.01 0.01 0.00 0.00 0.01 0.01 0.01 0.01 0.01 0.01 0.01 0.01 0.01 0.01 0.01 0.01 0.01 0.02 0.02 0.02 0.02 0.02 0.02 0.03 0.03 0.06 0.09 0.08 0.08 0.08 0.10 0.13
0.00 0.01 0.01 0.00 0.00 0.00 0.01 0.01 0.01 0.01 0.01 0.01 0.02 0.02 0.01 0.01 0.01 0.01 0.01 0.02 0.02 0.02 0.01 0.01 0.01 0.01 0.01 0.01 0.01 0.02 0.02 0.02 0.03 0.03 0.04 0.04 0.04 0.08 0.10 0.09 0.10 0.11 0.11 0.11
0.00 0.01 0.01 0.01 0.01 0.00 0.01 0.01 0.01 0.01 0.01 0.01 0.02 0.02 0.02 0.02 0.02 0.02 0.02 0.02 0.02 0.02 0.02 0.02 0.02 0.02 0.03 0.02 0.01 0.01 0.02 0.04 0.04 0.03 0.04 0.05 0.05 0.09 0.12 0.13 0.15 0.15 0.13 0.12
0.00 0.00 0.00 0.00 0.01 0.01 0.01 0.00 0.01 0.01 0.01 0.01 0.01 0.02 0.02 0.02 0.02 0.03 0.02 0.02 0.02 0.02 0.03 0.04 0.04 0.03 0.03 0.02 0.02 0.02 0.02 0.03 0.03 0.04 0.04 0.04 0.04 0.07 0.12 0.14 0.12 0.13 0.14 0.12
0.01 0.00 0.00 0.00 0.00 0.00 0.00 0.00 0.01 0.01 0.01 0.02 0.02 0.02 0.02 0.03 0.03 0.02 0.03 0.02 0.02 0.03 0.04 0.05 0.05 0.05 0.04 0.04 0.03 0.03 0.03 0.02 0.03 0.04 0.04 0.04 0.04 0.06 0.08 0.12 0.11 0.09 0.11 0.14
0.01 0.01 0.01 0.01 0.01 0.01 0.01 0.01 0.01 0.01 0.01 0.02 0.02 0.02 0.02 0.02 0.01 0.01 0.02 0.02 0.02 0.02 0.03 0.04 0.04 0.04 0.05 0.05 0.04 0.04 0.03 0.04 0.04 0.05 0.05 0.05 0.04 0.05 0.05 0.07 0.08 0.07 0.07 0.10
0.01 0.01 0.02 0.03 0.02 0.02 0.02 0.02 0.02 0.02 0.02 0.02 0.02 0.02 0.02 0.01 0.01 0.01 0.01 0.02 0.03 0.03 0.04 0.04 0.03 0.03 0.04 0.04 0.04 0.05 0.05 0.05 0.06 0.06 0.07 0.06 0.04 0.03 0.04 0.06 0.06 0.06 0.06 0.06
0.02 0.02 0.02 0.03 0.03 0.02 0.02 0.03 0.03 0.02 0.02 0.02 0.02 0.02 0.02 0.02 0.02 0.02 0.03 0.04 0.05 0.04 0.04 0.04 0.04 0.05 0.04 0.04 0.03 0.03 0.04 0.05 0.06 0.07 0.07 0.06 0.06 0.05 0.04 0.05 0.06 0.06 0.06 0.06
0.04 0.03 0.02 0.03 0.04 0.04 0.04 0.03 0.03 0.03 0.02 0.03 0.03 0.04 0.04 0.05 0.05 0.04 0.04 0.04 0.05 0.06 0.06 0.06 0.05 0.05 0.05 0.04 0.03 0.03 0.04 0.07 0.08 0.07 0.06 0.05 0.06 0.06 0.05 0.04 0.05 0.06 0.08 0.08
MSLP
1010.48 1011.23 1011.84 1012.28 1012.57 1012.70 1012.72 1012.63 1012.46 1012.22 1011.90 1011.52 1011.08 1010.60 1010.12 1009.66 1009.25 1008.93 1008.72 1008.61 1008.60 1008.68 1008.82 1009.01 1009.23 1009.49 1009.78 1010.12 1010.52 1010.95 1011.43 1011.93 1012.43 1012.90 1013.32 1013.68 1013.99 1014.23 1014.45 1014.65 1014.86 1015.09 1015.34 1015.62
1010.81 1011.44 1011.93 1012.28 1012.53 1012.68 1012.78 1012.84 1012.83 1012.74 1012.55 1012.24 1011.80 1011.24 1010.60 1009.94 1009.32 1008.79 1008.40 1008.16 1008.07 1008.10 1008.24 1008.46 1008.72 1009.01 1009.34 1009.71 1010.12 1010.60 1011.12 1011.68 1012.24 1012.77 1013.25 1013.65 1013.97 1014.21 1014.39 1014.54 1014.70 1014.88 1015.11 1015.39
1010.92 1011.41 1011.77 1012.04 1012.26 1012.48 1012.70 1012.93 1013.12 1013.23 1013.18 1012.94 1012.49 1011.84 1011.05 1010.18 1009.33 1008.58 1007.99 1007.60 1007.42 1007.42 1007.58 1007.82 1008.13 1008.48 1008.85 1009.27 1009.73 1010.24 1010.81 1011.42 1012.03 1012.63 1013.16 1013.59 1013.93 1014.17 1014.33 1014.46 1014.58 1014.73 1014.94 1015.22
1010.86 1011.19 1011.43 1011.64 1011.86 1012.17 1012.55 1012.98 1013.40 1013.70 1013.80 1013.64 1013.18 1012.43 1011.47 1010.38 1009.28 1008.31 1007.53 1007.00 1006.73 1006.71 1006.87 1007.16 1007.53 1007.94 1008.37 1008.83 1009.32 1009.86 1010.46 1011.10 1011.75 1012.38 1012.95 1013.42 1013.78 1014.03 1014.20 1014.31 1014.41 1014.55 1014.76 1015.03
1010.70 1010.89 1011.02 1011.18 1011.44 1011.85 1012.41 1013.06 1013.69 1014.19 1014.44 1014.34 1013.85 1013.00 1011.86 1010.55 1009.23 1008.04 1007.08 1006.42 1006.08 1006.03 1006.21 1006.56 1006.98 1007.45 1007.92 1008.40 1008.91 1009.45 1010.04 1010.67 1011.33 1011.97 1012.55 1013.05 1013.43 1013.71 1013.89 1014.02 1014.13 1014.28 1014.49 1014.78
1010.52 1010.58 1010.62 1010.76 1011.08 1011.61 1012.34 1013.19 1014.03 1014.70 1015.06 1015.01 1014.49 1013.53 1012.23 1010.73 1009.20 1007.82 1006.70 1005.93 1005.54 1005.48 1005.69 1006.08 1006.55 1007.06 1007.55 1008.03 1008.51 1009.01 1009.55 1010.14 1010.75 1011.36 1011.94 1012.43 1012.84 1013.14 1013.36 1013.52 1013.68 1013.86 1014.10 1014.41
1010.36 1010.31 1010.30 1010.44 1010.82 1011.46 1012.35 1013.37 1014.38 1015.18 1015.63 1015.59 1015.04 1013.99 1012.55 1010.89 1009.20 1007.67 1006.45 1005.61 1005.19 1005.13 1005.37 1005.80 1006.31 1006.83 1007.32 1007.76 1008.18 1008.59 1009.04 1009.53 1010.05 1010.60 1011.12 1011.61 1012.02 1012.34 1012.60 1012.82 1013.03 1013.27 1013.55 1013.90
1010.22 1010.09 1010.05 1010.20 1010.64 1011.38 1012.39 1013.54 1014.66 1015.55 1016.05 1016.02 1015.43 1014.31 1012.78 1011.02 1009.24 1007.63 1006.35 1005.49 1005.07 1005.03 1005.30 1005.76 1006.28 1006.80 1007.25 1007.62 1007.94 1008.24 1008.55 1008.90 1009.30 1009.75 1010.21 1010.65 1011.05 1011.40 1011.70 1011.96 1012.23 1012.53 1012.88 1013.28
1010.07 1009.90 1009.84 1010.01 1010.49 1011.30 1012.39 1013.61 1014.78 1015.72 1016.23 1016.20 1015.59 1014.44 1012.88 1011.09 1009.28 1007.67 1006.41 1005.57 1005.18 1005.18 1005.48 1005.96 1006.48 1006.96 1007.35 1007.63 1007.83 1007.98 1008.14 1008.35 1008.61 1008.93 1009.30 1009.68 1010.05 1010.40 1010.73 1011.04 1011.37 1011.72 1012.12 1012.57
1009.87 1009.67 1009.61 1009.80 1010.32 1011.16 1012.26 1013.49 1014.67 1015.59 1016.09 1016.05 1015.44 1014.31 1012.78 1011.04 1009.31 1007.78 1006.59 1005.83 1005.50 1005.55 1005.88 1006.36 1006.86 1007.29 1007.60 1007.78 1007.85 1007.87 1007.88 1007.93 1008.05 1008.26 1008.52 1008.83 1009.16 1009.50 1009.83 1010.17 1010.53 1010.92 1011.36 1011.85
1009.60 1009.41 1009.35 1009.55 1010.06 1010.88 1011.96 1013.14 1014.26 1015.13 1015.59 1015.54 1014.96 1013.89 1012.46 1010.85 1009.27 1007.89 1006.84 1006.20 1005.96 1006.07 1006.42 1006.89 1007.35 1007.72 1007.95 1008.03 1007.99 1007.89 1007.78 1007.71 1007.71 1007.80 1007.97 1008.21 1008.48 1008.78 1009.10 1009.43 1009.80 1010.20 1010.66 1011.16
1009.29 1009.10 1009.06 1009.25 1009.74 1010.51 1011.49 1012.57 1013.59 1014.36 1014.77 1014.71 1014.17 1013.20 1011.93 1010.52 1009.14 1007.97 1007.10 1006.61 1006.48 1006.65 1007.02 1007.46 1007.87 1008.18 1008.33 1008.33 1008.21 1008.02 1007.82 1007.66 1007.58 1007.59 1007.68 1007.85 1008.06 1008.30 1008.58 1008.88 1009.22 1009.60 1010.05 1010.54
1009.00 1008.84 1008.80 1008.98 1009.41 1010.08 1010.94 1011.86 1012.72 1013.37 1013.69 1013.61 1013.12 1012.29 1011.21 1010.03 1008.90 1007.97 1007.32 1006.99 1006.97 1007.19 1007.57 1007.98 1008.34 1008.59 1008.67 1008.61 1008.44 1008.21 1007.97 1007.77 1007.64 1007.59 1007.63 1007.73 1007.88 1008.05 1008.27 1008.51 1008.79 1009.13 1009.53 1010.00
1008.84 1008.71 1008.68 1008.83 1009.17 1009.72 1010.40 1011.13 1011.79 1012.27 1012.48 1012.36 1011.93 1011.22 1010.34 1009.41 1008.54 1007.87 1007.44 1007.28 1007.37 1007.64 1008.02 1008.41 1008.72 1008.90 1008.94 1008.85 1008.66 1008.41 1008.17 1007.97 1007.83 1007.76 1007.76 1007.80 1007.89 1008.00 1008.13 1008.29 1008.51 1008.78 1009.12 1009.55
1008.90 1008.80 1008.78 1008.88 1009.12 1009.51 1009.98 1010.48 1010.91 1011.20 1011.27 1011.09 1010.68 1010.09 1009.40 1008.70 1008.09 1007.66 1007.44 1007.45 1007.64 1007.97 1008.34 1008.70 1008.97 1009.11 1009.12 1009.02 1008.83 1008.60 1008.39 1008.21 1008.08 1008.01 1007.99 1008.01 1008.03 1008.08 1008.13 1008.21 1008.34 1008.54 1008.82 1009.18
1009.24 1009.17 1009.15 1009.19 1009.32 1009.52 1009.77 1010.01 1010.19 1010.25 1010.15 1009.89 1009.48 1008.97 1008.44 1007.95 1007.57 1007.37 1007.34 1007.50 1007.79 1008.16 1008.55 1008.88 1009.12 1009.24 1009.23 1009.13 1008.97 1008.78 1008.60 1008.46 1008.36 1008.31 1008.28 1008.27 1008.26 1008.24 1008.23 1008.24 1008.29 1008.42 1008.63 1008.94
1009.86 1009.82 1009.77 1009.74 1009.74 1009.75 1009.77 1009.75 1009.66 1009.49 1009.21 1008.84 1008.40 1007.95 1007.53 1007.22 1007.04 1007.03 1007.17 1007.47 1007.85 1008.27 1008.67 1009.01 1009.23 1009.33 1009.33 1009.25 1009.11 1008.97 1008.84 1008.74 1008.67 1008.64 1008.61 1008.59 1008.55 1008.49 1008.43 1008.39 1008.39 1008.45 1008.61 1008.86
1010.68 1010.63 1010.55 1010.44 1010.30 1010.14 1009.93 1009.66 1009.33 1008.93 1008.47 1007.99 1007.51 1007.08 1006.76 1006.57 1006.54 1006.69 1006.99 1007.40 1007.88 1008.36 1008.79 1009.13 1009.36 1009.47 1009.48 1009.42 1009.32 1009.21 1009.12 1009.06 1009.03 1009.01 1009.00 1008.97 1008.92 1008.85 1008.77 1008.70 1008.66 1008.70 1008.81 1009.02
1011.54 1011.47 1011.34 1011.15 1010.89 1010.55 1010.15 1009.67 1009.13 1008.54 1007.93 1007.35 1006.83 1006.41 1006.15 1006.07 1006.16 1006.44 1006.86 1007.38 1007.93 1008.47 1008.95 1009.32 1009.57 1009.71 1009.74 1009.71 1009.64 1009.57 1009.51 1009.47 1009.46 1009.47 1009.47 1009.46 1009.42 1009.36 1009.28 1009.21 1009.18 1009.19 1009.29 1009.47
1012.30 1012.18 1011.98 1011.70 1011.33 1010.86 1010.32 1009.68 1009.00 1008.28 1007.57 1006.92 1006.38 1005.98 1005.77 1005.76 1005.96 1006.33 1006.85 1007.45 1008.08 1008.68 1009.21 1009.62 1009.91 1010.08 1010.15 1010.14 1010.10 1010.05 1010.02 1010.00 1010.01 1010.04 1010.07 1010.08 1010.07 1010.05 1010.01 1009.97 1009.95 1009.98 1010.07 1010.22
1012.82 1012.62 1012.34 1011.98 1011.53 1010.98 1010.35 1009.64 1008.88 1008.10 1007.36 1006.70 1006.16 1005.80 1005.64 1005.70 1005.96 1006.41 1007.00 1007.67 1008.36 1009.01 1009.59 1010.04 1010.37 1010.58 1010.68 1010.71 1010.70 1010.67 1010.65 1010.66 1010.69 1010.74 1010.80 1010.85 1010.90 1010.93 1010.95 1010.97 1010.99 1011.04 1011.14 1011.28
1013.03 1012.74 1012.38 1011.95 1011.45 1010.87 1010.22 1009.51 1008.76 1008.01 1007.30 1006.68 1006.20 1005.89 1005.78 1005.90 1006.22 1006.71 1007.34 1008.05 1008.78 1009.47 1010.08 1010.57 1010.93 1011.18 1011.32 1011.38 1011.39 1011.39 1011.39 1011.41 1011.47 1011.55 1011.66 1011.77 1011.88 1011.99 1012.08 1012.17 1012.26 1012.34 1012.45 1012.58
1012.95 1012.55 1012.11 1011.64 1011.13 1010.57 1009.96 1009.32 1008.66 1008.00 1007.39 1006.87 1006.47 1006.24 1006.20 1006.36 1006.71 1007.22 1007.86 1008.58 1009.32 1010.02 1010.64 1011.16 1011.55 1011.83 1012.00 1012.09 1012.13 1012.15 1012.18 1012.23 1012.32 1012.44 1012.60 1012.78 1012.97 1013.16 1013.34 1013.51 1013.66 1013.80 1013.93 1014.05
1012.65 1012.15 1011.65 1011.16 1010.67 1010.17 1009.67 1009.15 1008.63 1008.12 1007.66 1007.27 1006.99 1006.84 1006.86 1007.06 1007.42 1007.92 1008.55 1009.24 1009.95 1010.64 1011.25 1011.77 1012.18 1012.48 1012.67 1012.79 1012.86 1012.91 1012.96 1013.05 1013.18 1013.35 1013.57 1013.83 1014.10 1014.38 1014.66 1014.91 1015.13 1015.33 1015.48 1015.61
1012.22 1011.65 1011.12 1010.64 1010.20 1009.80 1009.43 1009.07 1008.72 1008.40 1008.10 1007.86 1007.70 1007.65 1007.72 1007.93 1008.28 1008.76 1009.33 1009.97 1010.63 1011.28 1011.86 1012.37 1012.78 1013.08 1013.29 1013.44 1013.53 1013.62 1013.71 1013.84 1014.01 1014.24 1014.53 1014.86 1015.22 1015.59 1015.95 1016.28 1016.58 1016.83 1017.02 1017.17
1011.78 1011.16 1010.63 1010.19 1009.83 1009.55 1009.33 1009.14 1008.97 1008.83 1008.70 1008.60 1008.55 1008.58 1008.68 1008.90 1009.22 1009.65 1010.16 1010.72 1011.32 1011.91 1012.45 1012.92 1013.32 1013.63 1013.85 1014.02 1014.15 1014.26 1014.40 1014.57 1014.79 1015.08 1015.43 1015.83 1016.27 1016.72 1017.16 1017.58 1017.94 1018.24 1018.49 1018.67
Thickness
5751 5740 5734 5742 5750 5754 5755 5753 5752 5761 5777 5776 5773 5776 5785 5792 5793 5793 5794 5795 5797 5799 5802 5799 5795 5792 5787 5783 5778 5775 5771 5768 5764 5759 5756 5752 5749 5748 5747 5747 5745 5744 5742 5741
5732 5731 5744 5749 5751 5753 5752 5748 5748 5758 5771 5772 5767 5771 5784 5790 5794 5798 5798 5798 5800 5798 5797 5797 5794 5791 5788 5784 5780 5776 5773 5769 5766 5763 5759 5755 5752 5749 5748 5747 5746 5744 5743 5742
5725 5736 5747 5745 5743 5742 5743 5743 5746 5749 5759 5764 5762 5759 5772 5785 5793 5797 5800 5801 5801 5800 5798 5797 5795 5792 5789 5785 5782 5779 5775 5771 5767 5763 5759 5755 5751 5748 5746 5745 5744 5744 5743 5742
5725 5738 5742 5738 5738 5739 5732 5749 5750 5749 5740 5732 5747 5730 5758 5772 5780 5789 5795 5798 5801 5803 5802 5798 5796 5794 5792 5790 5786 5781 5777 5772 5768 5764 5760 5755 5750 5747 5747 5747 5745 5744 5743 5742
5720 5732 5734 5732 5738 5742 5740 5752 5749 5746 5736 5727 5734 5729 5743 5765 5770 5783 5793 5799 5803 5805 5804 5801 5800 5798 5796 5792 5787 5782 5777 5773 5769 5765 5762 5757 5754 5751 5749 5747 5745 5744 5743 5742
5722 5736 5738 5739 5747 5748 5747 5740 5731 5720 5715 5707 5724 5722 5734 5754 5772 5784 5794 5800 5803 5806 5805 5803 5801 5797 5794 5792 5787 5782 5777 5773 5770 5766 5762 5758 5755 5751 5748 5746 5744 5743 5742 5742
5712 5725 5737 5744 5735 5738 5735 5712 5694 5697 5688 5696 5723 5725 5736 5768 5782 5789 5794 5798 5804 5806 5805 5802 5799 5796 5794 5791 5788 5783 5777 5773 5771 5767 5763 5760 5756 5753 5750 5748 5745 5743 5741 5741
5692 5697 5724 5736 5733 5724 5722 5713 5691 5685 5686 5698 5718 5719 5746 5777 5787 5792 5796 5799 5802 5803 5804 5803 5802 5799 5796 5793 5790 5784 5779 5775 5772 5768 5764 5761 5757 5754 5751 5749 5747 5745 5744 5744
5685 5694 5726 5737 5742 5733 5714 5710 5716 5696 5696 5697 5706 5725 5751 5776 5782 5788 5792 5796 5798 5801 5804 5803 5802 5800 5798 5794 5791 5787 5781 5776 5773 5770 5765 5761 5758 5755 5753 5751 5749 5746 5745 5744
5696 5694 5715 5730 5734 5732 5727 5715 5698 5689 5680 5684 5704 5717 5731 5760 5771 5779 5785 5790 5796 5799 5802 5802 5801 5800 5798 5796 5792 5787 5782 5778 5774 5771 5766 5763 5760 5757 5755 5751 5748 5747 5746 5744
5698 5690 5700 5713 5714 5712 5712 5708 5699 5688 5690 5682 5688 5710 5751 5760 5770 5774 5781 5788 5792 5796 5799 5800 5800 5800 5797 5794 5790 5786 5782 5778 5774 5771 5768 5764 5761 5758 5755 5752 5750 5748 5747 5746
5691 5680 5679 5698 5718 5726 5721 5711 5700 5692 5687 5687 5690 5711 5761 5764 5770 5774 5779 5785 5790 5793 5795 5797 5797 5796 5794 5791 5788 5785 5781 5778 5775 5772 5769 5765 5762 5759 5756 5752 5750 5749 5747 5746
5687 5674 5669 5680 5695 5709 5711 5710 5707 5698 5685 5680 5687 5714 5756 5760 5766 5772 5776 5781 5784 5787 5790 5792 5792 5791 5790 5788 5786 5783 5780 5778 5775 5772 5768 5764 5762 5759 5756 5754 5751 5749 5747 5744
5690 5671 5669 5670 5682 5696 5702 5706 5705 5698 5684 5684 5697 5717 5741 5751 5758 5766 5772 5776 5779 5782 5784 5785 5786 5786 5786 5785 5783 5781 5778 5777 5774 5770 5767 5764 5762 5759 5757 5754 5751 5748 5746 5743
5682 5670 5676 5682 5694 5700 5704 5705 5705 5704 5700 5698 5709 5718 5737 5747 5754 5761 5767 5772 5773 5775 5777 5780 5781 5781 5781 5781 5779 5778 5776 5774 5773 5768 5765 5763 5761 5759 5755 5752 5750 5747 5745 5742
5668 5667 5672 5678 5689 5696 5697 5702 5705 5708 5708 5710 5716 5722 5742 5748 5753 5757 5761 5766 5767 5770 5773 5774 5776 5776 5776 5776 5776 5775 5773 5771 5770 5766 5764 5762 5759 5756 5753 5750 5747 5744 5743 5741
5656 5659 5657 5660 5678 5686 5679 5695 5701 5705 5711 5714 5712 5725 5736 5740 5746 5751 5757 5761 5763 5766 5768 5770 5771 5772 5772 5773 5773 5771 5769 5768 5766 5764 5762 5760 5757 5754 5751 5748 5745 5742 5739 5737
5651 5647 5643 5648 5664 5657 5680 5702 5707 5706 5710 5717 5722 5728 5733 5739 5745 5750 5755 5758 5760 5763 5765 5768 5769 5769 5770 5770 5769 5767 5766 5764 5761 5760 5758 5757 5755 5751 5748 5745 5742 5739 5736 5734
5651 5646 5637 5636 5643 5658 5681 5696 5700 5699 5701 5715 5718 5724 5729 5736 5740 5744 5752 5756 5757 5760 5763 5766 5767 5767 5766 5765 5765 5763 5761 5759 5757 5755 5754 5753 5752 5748 5744 5741 5738 5736 5733 5730
5640 5641 5635 5633 5640 5645 5672 5695 5704 5699 5691 5712 5717 5720 5724 5729 5723 5733 5746 5750 5753 5756 5759 5761 5762 5762 5761 5761 5760 5757 5755 5753 5751 5750 5749 5749 5748 5744 5740 5737 5734 5732 5729 5726
5626 5627 5627 5629 5636 5650 5676 5690 5696 5679 5690 5710 5715 5718 5721 5722 5727 5734 5739 5742 5746 5750 5753 5755 5755 5755 5755 5755 5755 5751 5750 5748 5747 5746 5744 5743 5741 5739 5735 5732 5729 5727 5724 5720
5621 5620 5620 5623 5629 5644 5676 5682 5680 5685 5699 5706 5710 5714 5716 5719 5724 5728 5731 5735 5739 5742 5744 5747 5747 5747 5748 5748 5748 5745 5744 5744 5742 5740 5738 5736 5734 5733 5730 5726 5722 5720 5717 5714
5619 5624 5625 5631 5640 5657 5668 5674 5683 5687 5692 5699 5704 5709 5712 5714 5718 5721 5724 5727 5731 5734 5736 5738 5738 5738 5739 5740 5740 5738 5738 5738 5736 5733 5730 5728 5727 5725 5723 5719 5715 5712 5710 5708
5618 5623 5625 5631 5644 5654 5663 5670 5677 5684 5689 5695 5700 5704 5708 5709 5712 5715 5716 5719 5722 5725 5727 5729 5730 5730 5730 5731 5732 5733 5733 5733 5730 5726 5723 5720 5718 5715 5713 5711 5708 5705 5703 5701
5612 5618 5621 5628 5640 5649 5659 5665 5671 5678 5684 5689 5694 5698 5702 5704 5705 5708 5710 5712 5714 5716 5720 5722 5723 5723 5722 5722 5723 5725 5725 5725 5722 5719 5716 5713 5710 5707 5703 5700 5697 5696 5693 5693
5605 5611 5617 5625 5635 5640 5649 5658 5665 5670 5676 5681 5686 5689 5694 5698 5700 5702 5704 5705 5707 5708 5711 5713 5714 5714 5714 5715 5715 5715 5716 5717 5715 5712 5709 5707 5703 5699 5695 5691 5686 5682 5682 5681